| time (UTC) | temp F | wind direction | speed knots | gust knots | rain 1hr in | rain 24hr in | rain mn in | humidity % | barometer mb |
| 20260904044123 | 78 | 186 | 0.0 | 0.0 | 0.00 | 0.00 | 0.00 | 94 | 1014.2 |
| 20260904043619 | 78 | 186 | 0.0 | 0.0 | 0.00 | 0.00 | 0.00 | 94 | 1014.1 |
| 20260904043115 | 79 | 150 | 0.0 | 0.0 | 0.00 | 0.00 | 0.00 | 94 | 1014.2 |
| 20260904042610 | 79 | 123 | 0.0 | 0.0 | 0.00 | 0.00 | 0.00 | 93 | 1014.1 |
| 20260904042106 | 79 | 227 | 0.0 | 0.9 | 0.00 | 0.00 | 0.00 | 93 | 1014.1 |
| 20260904041601 | 79 | 285 | 0.0 | 0.0 | 0.00 | 0.00 | 0.00 | 92 | 1014.1 |
| 20260904041057 | 79 | 285 | 0.0 | 0.0 | 0.00 | 0.00 | 0.00 | 92 | 1014.0 |
| 20260904040557 | 80 | 210 | 0.0 | 0.0 | 0.00 | 0.00 | 0.00 | 92 | 1014.0 |
| 20260904040054 | 80 | 92 | 0.0 | 0.0 | 0.00 | 0.00 | 0.00 | 92 | 1014.2 |
| 20260904035549 | 80 | 296 | 0.0 | 0.0 | 0.00 | 0.00 | 0.00 | 91 | 1014.0 |
| 20260904035048 | 80 | 94 | 0.0 | 0.9 | 0.00 | 0.00 | 0.00 | 91 | 1014.2 |
| 20260904034543 | 80 | 105 | 0.0 | 0.0 | 0.00 | 0.00 | 0.00 | 91 | 1014.2 |
| 20260904034039 | 80 | 268 | 0.0 | 0.0 | 0.00 | 0.00 | 0.00 | 91 | 1014.2 |
| 20260904033535 | 80 | 110 | 0.0 | 0.0 | 0.00 | 0.00 | 0.00 | 91 | 1014.1 |
| 20260904033032 | 80 | 250 | 0.0 | 0.0 | 0.00 | 0.00 | 0.00 | 91 | 1014.0 |
| 20260904032528 | 80 | 250 | 0.0 | 0.9 | 0.00 | 0.00 | 0.00 | 91 | 1014.1 |
| 20260904032026 | 80 | 198 | 0.0 | 0.0 | 0.00 | 0.00 | 0.00 | 91 | 1013.9 |
| 20260904031521 | 80 | 43 | 0.0 | 0.9 | 0.00 | 0.00 | 0.00 | 91 | 1014.0 |
| 20260904031017 | 80 | 98 | 0.0 | 0.9 | 0.00 | 0.00 | 0.00 | 91 | 1014.1 |
| 20260904030513 | 80 | 303 | 0.0 | 0.0 | 0.00 | 0.00 | 0.00 | 91 | 1014.0 |
| 20260904030008 | 80 | 290 | 0.0 | 0.9 | 0.00 | 0.00 | 0.00 | 91 | 1013.9 |
| 20260904025504 | 80 | 315 | 0.0 | 0.0 | 0.00 | 0.00 | 0.00 | 90 | 1014.0 |
| 20260904025004 | 80 | 274 | 0.0 | 0.0 | 0.00 | 0.00 | 0.00 | 90 | 1014.1 |
| 20260904024459 | 80 | 153 | 0.0 | 0.0 | 0.00 | 0.00 | 0.00 | 90 | 1013.9 |
| 20260904023954 | 80 | 210 | 0.0 | 0.9 | 0.00 | 0.00 | 0.00 | 90 | 1013.6 |
| 20260904023450 | 80 | 163 | 0.0 | 0.0 | 0.00 | 0.00 | 0.00 | 90 | 1013.8 |
| 20260904022950 | 80 | 278 | 0.0 | 0.0 | 0.00 | 0.00 | 0.00 | 90 | 1013.9 |
| 20260904022446 | 80 | 278 | 0.0 | 0.0 | 0.00 | 0.00 | 0.00 | 90 | 1013.8 |
| 20260904021943 | 80 | 34 | 0.0 | 0.9 | 0.00 | 0.00 | 0.00 | 90 | 1013.7 |
| 20260904021438 | 80 | 31 | 0.0 | 1.7 | 0.00 | 0.00 | 0.00 | 90 | 1013.8 |
| 20260904020933 | 80 | 98 | 0.0 | 0.0 | 0.00 | 0.00 | 0.00 | 90 | 1013.9 |
| 20260904020428 | 80 | 216 | 0.0 | 0.9 | 0.00 | 0.00 | 0.00 | 91 | 1013.7 |
| 20260904015926 | 80 | 223 | 0.0 | 0.0 | 0.00 | 0.00 | 0.00 | 90 | 1013.9 |
| 20260904015422 | 80 | 95 | 0.0 | 0.9 | 0.00 | 0.00 | 0.00 | 90 | 1013.5 |
| 20260904014920 | 80 | 20 | 0.0 | 0.9 | 0.00 | 0.00 | 0.00 | 90 | 1013.7 |
| 20260904014416 | 80 | 198 | 0.0 | 0.9 | 0.00 | 0.00 | 0.00 | 90 | 1013.7 |
| 20260904013912 | 80 | 43 | 0.0 | 0.0 | 0.00 | 0.00 | 0.00 | 89 | 1013.5 |
| 20260904013407 | 80 | 250 | 0.0 | 0.0 | 0.00 | 0.00 | 0.00 | 89 | 1013.9 |
| 20260904012858 | 80 | 236 | 0.0 | 0.9 | 0.00 | 0.00 | 0.00 | 88 | 1013.7 |
| 20260904012357 | 80 | 186 | 0.0 | 0.0 | 0.00 | 0.00 | 0.00 | 88 | 1013.9 |
| 20260904011857 | 80 | 98 | 0.0 | 0.9 | 0.00 | 0.00 | 0.00 | 88 | 1013.9 |
| 20260904011352 | 80 | 98 | 0.0 | 0.0 | 0.00 | 0.00 | 0.00 | 88 | 1013.5 |
| 20260904010847 | 80 | 25 | 0.0 | 0.9 | 0.00 | 0.00 | 0.00 | 88 | 1013.8 |
| 20260904010344 | 80 | 227 | 0.0 | 0.0 | 0.00 | 0.00 | 0.00 | 87 | 1013.5 |
| 20260904005838 | 80 | 205 | 0.0 | 0.0 | 0.00 | 0.00 | 0.00 | 86 | 1013.5 |
| 20260904005334 | 80 | 198 | 0.0 | 0.9 | 0.00 | 0.00 | 0.00 | 86 | 1013.5 |
| 20260904004829 | 81 | 91 | 0.0 | 1.7 | 0.00 | 0.00 | 0.00 | 85 | 1013.5 |
| 20260904004326 | 81 | 21 | 0.0 | 0.9 | 0.00 | 0.00 | 0.00 | 86 | 1013.2 |
| 20260904003820 | 81 | 130 | 0.0 | 0.0 | 0.00 | 0.00 | 0.00 | 85 | 1013.5 |
| 20260904003316 | 81 | 84 | 0.0 | 0.0 | 0.00 | 0.00 | 0.00 | 85 | 1013.5 |
| 20260904002812 | 81 | 278 | 0.0 | 0.0 | 0.00 | 0.00 | 0.00 | 84 | 1013.6 |
| 20260904002308 | 81 | 84 | 0.0 | 0.0 | 0.00 | 0.00 | 0.00 | 84 | 1013.6 |
| 20260904001807 | 81 | 70 | 0.0 | 0.0 | 0.00 | 0.00 | 0.00 | 84 | 1013.5 |
| 20260904001302 | 81 | 216 | 0.0 | 0.0 | 0.00 | 0.00 | 0.00 | 84 | 1013.6 |
| 20260904000757 | 81 | 250 | 0.0 | 0.0 | 0.00 | 0.00 | 0.00 | 84 | 1013.4 |
| 20260904000251 | 82 | 97 | 0.0 | 0.9 | 0.00 | 0.00 | 0.00 | 83 | 1013.2 |
| 20260903235750 | 82 | 25 | 0.0 | 0.9 | 0.00 | 0.00 | 0.00 | 84 | 1013.3 |
| 20260903235247 | 82 | 31 | 0.0 | 0.9 | 0.00 | 0.00 | 0.00 | 84 | 1013.3 |
| 20260903234746 | 82 | 200 | 0.0 | 0.0 | 0.00 | 0.00 | 0.00 | 84 | 1013.1 |
| 20260903234243 | 82 | 54 | 0.0 | 0.9 | 0.00 | 0.00 | 0.00 | 83 | 1013.1 |
| 20260903233739 | 83 | 123 | 0.0 | 1.7 | 0.00 | 0.00 | 0.00 | 82 | 1013.1 |
| 20260903233234 | 83 | 214 | 0.0 | 0.9 | 0.00 | 0.00 | 0.00 | 81 | 1013.2 |
| 20260903232733 | 83 | 352 | 0.0 | 1.7 | 0.00 | 0.00 | 0.00 | 81 | 1013.0 |
| 20260903232230 | 83 | 347 | 0.9 | 0.9 | 0.00 | 0.00 | 0.00 | 80 | 1012.9 |
| 20260903231728 | 84 | 98 | 0.9 | 0.9 | 0.00 | 0.00 | 0.00 | 80 | 1012.9 |
| 20260903231224 | 84 | 199 | 0.0 | 0.9 | 0.00 | 0.00 | 0.00 | 79 | 1012.8 |
| 20260903230719 | 84 | 96 | 0.0 | 0.9 | 0.00 | 0.00 | 0.00 | 79 | 1012.7 |
| 20260903230214 | 84 | 176 | 0.0 | 0.0 | 0.00 | 0.00 | 0.00 | 78 | 1012.8 |
| 20260903225710 | 84 | 134 | 0.0 | 1.7 | 0.00 | 0.00 | 0.00 | 78 | 1012.6 |
| 20260903225207 | 84 | 96 | 0.0 | 0.9 | 0.00 | 0.00 | 0.00 | 79 | 1012.7 |
| 20260903224703 | 85 | 114 | 0.0 | 1.7 | 0.00 | 0.00 | 0.00 | 78 | 1012.8 |
| 20260903224158 | 85 | 296 | 0.0 | 0.0 | 0.00 | 0.00 | 0.00 | 76 | 1012.4 |
| 20260903223659 | 85 | 317 | 0.9 | 0.9 | 0.00 | 0.00 | 0.00 | 75 | 1012.5 |
| 20260903223157 | 85 | 95 | 1.7 | 1.7 | 0.00 | 0.00 | 0.00 | 75 | 1012.4 |
| 20260903222658 | 85 | 250 | 0.0 | 0.9 | 0.00 | 0.00 | 0.00 | 74 | 1012.1 |
| 20260903222156 | 85 | 189 | 0.0 | 1.7 | 0.00 | 0.00 | 0.00 | 75 | 1012.2 |
| 20260903221652 | 85 | 188 | 0.0 | 2.6 | 0.00 | 0.00 | 0.00 | 73 | 1012.3 |
| 20260903221150 | 85 | 116 | 0.0 | 0.9 | 0.00 | 0.00 | 0.00 | 73 | 1012.4 |
| 20260903220649 | 86 | 58 | 0.0 | 0.9 | 0.00 | 0.00 | 0.00 | 72 | 1012.2 |
| 20260903220144 | 85 | 266 | 0.9 | 0.9 | 0.00 | 0.00 | 0.00 | 78 | 1012.2 |
| 20260903215643 | 85 | 193 | 0.0 | 0.9 | 0.00 | 0.00 | 0.00 | 76 | 1012.2 |
| 20260903215138 | 85 | 84 | 0.0 | 1.7 | 0.00 | 0.00 | 0.00 | 76 | 1012.1 |
| 20260903214636 | 86 | 94 | 0.0 | 1.7 | 0.00 | 0.00 | 0.00 | 76 | 1012.1 |
| 20260903214132 | 85 | 163 | 0.9 | 0.9 | 0.00 | 0.00 | 0.00 | 76 | 1012.4 |
| 20260903213627 | 85 | 192 | 0.0 | 1.7 | 0.00 | 0.00 | 0.00 | 74 | 1012.4 |
| 20260903213123 | 86 | 86 | 0.0 | 2.6 | 0.00 | 0.00 | 0.00 | 74 | 1012.2 |
| 20260903212618 | 86 | 34 | 0.9 | 0.9 | 0.00 | 0.00 | 0.00 | 74 | 1012.4 |
| 20260903212114 | 86 | 189 | 0.9 | 1.7 | 0.00 | 0.00 | 0.00 | 74 | 1012.1 |
| 20260903211608 | 86 | 245 | 0.9 | 0.9 | 0.00 | 0.00 | 0.00 | 74 | 1012.2 |
| 20260903211106 | 85 | 47 | 0.0 | 2.6 | 0.00 | 0.00 | 0.00 | 74 | 1012.4 |
| 20260903210600 | 86 | 278 | 0.0 | 0.9 | 0.00 | 0.00 | 0.00 | 75 | 1012.2 |
| 20260903210056 | 86 | 273 | 0.0 | 1.7 | 0.00 | 0.00 | 0.00 | 77 | 1011.9 |
| 20260903205555 | 86 | 135 | 0.9 | 2.6 | 0.00 | 0.00 | 0.00 | 76 | 1012.1 |
| 20260903205049 | 86 | 100 | 0.0 | 3.5 | 0.00 | 0.00 | 0.00 | 76 | 1012.4 |
| 20260903204546 | 86 | 37 | 0.9 | 2.6 | 0.00 | 0.00 | 0.00 | 76 | 1012.5 |
| 20260903204041 | 87 | 103 | 0.0 | 2.6 | 0.00 | 0.00 | 0.00 | 75 | 1012.4 |
| 20260903203536 | 87 | 341 | 0.9 | 2.6 | 0.00 | 0.00 | 0.00 | 74 | 1012.4 |
| 20260903203036 | 87 | 34 | 0.0 | 2.6 | 0.00 | 0.00 | 0.00 | 75 | 1012.8 |
| 20260903202532 | 87 | 152 | 3.5 | 3.5 | 0.00 | 0.00 | 0.00 | 75 | 1012.6 |
| 20260903202027 | 87 | 344 | 0.0 | 3.5 | 0.00 | 0.00 | 0.00 | 74 | 1012.8 |
| 20260903201522 | 87 | 15 | 1.7 | 1.7 | 0.00 | 0.00 | 0.00 | 73 | 1013.0 |
| 20260903201020 | 87 | 79 | 0.9 | 1.7 | 0.00 | 0.00 | 0.00 | 74 | 1013.0 |
| 20260903200515 | 87 | 23 | 0.0 | 2.6 | 0.00 | 0.00 | 0.00 | 74 | 1013.1 |
| 20260903200011 | 88 | 20 | 1.7 | 2.6 | 0.00 | 0.00 | 0.00 | 72 | 1013.2 |
| 20260903195507 | 88 | 183 | 0.0 | 2.6 | 0.00 | 0.00 | 0.00 | 72 | 1013.4 |
| 20260903195002 | 88 | 128 | 0.9 | 2.6 | 0.00 | 0.00 | 0.00 | 72 | 1013.3 |
| 20260903194457 | 89 | 73 | 1.7 | 4.3 | 0.00 | 0.00 | 0.00 | 72 | 1013.3 |
| 20260903193953 | 89 | 319 | 0.0 | 1.7 | 0.00 | 0.00 | 0.00 | 71 | 1013.5 |
| 20260903193449 | 88 | 18 | 0.0 | 2.6 | 0.00 | 0.00 | 0.00 | 71 | 1013.4 |
| 20260903192943 | 88 | 0 | 2.6 | 2.6 | 0.00 | 0.00 | 0.00 | 70 | 1013.3 |
| 20260903192441 | 88 | 11 | 0.9 | 2.6 | 0.00 | 0.00 | 0.00 | 73 | 1013.3 |
| 20260903191935 | 87 | 74 | 0.9 | 2.6 | 0.00 | 0.00 | 0.00 | 73 | 1013.4 |
| 20260903191432 | 88 | 7 | 1.7 | 1.7 | 0.00 | 0.00 | 0.00 | 71 | 1013.2 |
| 20260903190931 | 88 | 26 | 0.9 | 1.7 | 0.00 | 0.00 | 0.00 | 70 | 1013.4 |
| 20260903190425 | 89 | 132 | 0.0 | 2.6 | 0.00 | 0.00 | 0.00 | 71 | 1013.4 |
| 20260903185919 | 89 | 73 | 0.9 | 2.6 | 0.00 | 0.00 | 0.00 | 70 | 1013.4 |
| 20260903185414 | 88 | 94 | 0.0 | 2.6 | 0.00 | 0.00 | 0.00 | 74 | 1013.5 |
| 20260903184910 | 88 | 20 | 5.2 | 5.2 | 0.00 | 0.00 | 0.00 | 73 | 1013.5 |
| 20260903184407 | 88 | 20 | 2.6 | 3.5 | 0.00 | 0.00 | 0.00 | 74 | 1013.5 |
| 20260903183906 | 87 | 79 | 0.0 | 4.3 | 0.00 | 0.00 | 0.00 | 74 | 1013.4 |
| 20260903183401 | 87 | 238 | 2.6 | 2.6 | 0.00 | 0.00 | 0.00 | 75 | 1013.5 |
| 20260903182901 | 87 | 148 | 1.7 | 1.7 | 0.00 | 0.00 | 0.00 | 77 | 1013.9 |
| 20260903182359 | 87 | 55 | 0.0 | 3.5 | 0.00 | 0.00 | 0.00 | 77 | 1013.8 |
| 20260903181854 | 86 | 278 | 0.0 | 1.7 | 0.00 | 0.00 | 0.00 | 79 | 1014.0 |
| 20260903181349 | 86 | 348 | 2.6 | 3.5 | 0.00 | 0.00 | 0.00 | 78 | 1014.0 |
| 20260903180843 | 85 | 216 | 0.0 | 1.7 | 0.00 | 0.00 | 0.00 | 81 | 1014.1 |
| 20260903180343 | 84 | 13 | 0.0 | 0.9 | 0.00 | 0.00 | 0.00 | 81 | 1014.2 |
| 20260903175843 | 84 | 79 | 0.0 | 1.7 | 0.00 | 0.00 | 0.00 | 82 | 1014.2 |
| 20260903175337 | 84 | 207 | 0.0 | 0.9 | 0.00 | 0.00 | 0.00 | 82 | 1014.4 |
| 20260903174832 | 84 | 19 | 0.0 | 1.7 | 0.00 | 0.00 | 0.00 | 81 | 1014.2 |
| 20260903174327 | 83 | 159 | 0.0 | 1.7 | 0.00 | 0.00 | 0.00 | 82 | 1014.3 |
| 20260903173826 | 83 | 113 | 0.9 | 0.9 | 0.00 | 0.00 | 0.00 | 82 | 1014.4 |
| 20260903173322 | 83 | 176 | 0.0 | 2.6 | 0.00 | 0.00 | 0.00 | 83 | 1014.4 |
| 20260903172818 | 83 | 206 | 0.9 | 1.7 | 0.00 | 0.00 | 0.00 | 83 | 1014.4 |
| 20260903172312 | 83 | 1 | 1.7 | 1.7 | 0.00 | 0.00 | 0.00 | 83 | 1014.8 |
| 20260903171808 | 83 | 248 | 0.0 | 0.9 | 0.00 | 0.00 | 0.00 | 83 | 1014.8 |
| 20260903171303 | 82 | 29 | 0.0 | 2.6 | 0.00 | 0.00 | 0.00 | 84 | 1014.9 |
| 20260903170802 | 82 | 43 | 0.0 | 1.7 | 0.00 | 0.00 | 0.00 | 83 | 1014.8 |
| 20260903170257 | 82 | 236 | 0.0 | 1.7 | 0.00 | 0.00 | 0.00 | 85 | 1014.8 |
| 20260903165755 | 82 | 16 | 0.0 | 2.6 | 0.00 | 0.00 | 0.00 | 83 | 1015.0 |
| 20260903165251 | 82 | 215 | 0.9 | 1.7 | 0.00 | 0.00 | 0.00 | 83 | 1015.0 |
| 20260903164745 | 82 | 250 | 0.0 | 0.9 | 0.00 | 0.00 | 0.00 | 82 | 1015.0 |
| 20260903164241 | 83 | 211 | 0.0 | 0.9 | 0.00 | 0.00 | 0.00 | 81 | 1015.4 |
| 20260903163740 | 83 | 198 | 1.7 | 2.6 | 0.00 | 0.00 | 0.00 | 79 | 1015.3 |
| 20260903163237 | 83 | 190 | 0.0 | 3.5 | 0.00 | 0.00 | 0.00 | 79 | 1015.0 |
| 20260903162732 | 84 | 8 | 1.7 | 2.6 | 0.00 | 0.00 | 0.00 | 78 | 1015.2 |
| 20260903162229 | 84 | 21 | 0.0 | 2.6 | 0.00 | 0.00 | 0.00 | 79 | 1015.0 |
| 20260903161724 | 85 | 152 | 1.7 | 3.5 | 0.00 | 0.00 | 0.00 | 79 | 1015.2 |
| 20260903161219 | 85 | 153 | 0.0 | 2.6 | 0.00 | 0.00 | 0.00 | 80 | 1015.1 |
| 20260903160715 | 84 | 220 | 0.0 | 3.5 | 0.00 | 0.00 | 0.00 | 80 | 1014.8 |
| 20260903160214 | 84 | 203 | 0.9 | 1.7 | 0.00 | 0.00 | 0.00 | 81 | 1014.9 |
| 20260903155713 | 84 | 227 | 0.0 | 2.6 | 0.00 | 0.00 | 0.00 | 81 | 1014.9 |
| 20260903155208 | 84 | 25 | 0.0 | 1.7 | 0.00 | 0.00 | 0.00 | 80 | 1015.2 |
| 20260903154704 | 85 | 210 | 0.0 | 1.7 | 0.00 | 0.00 | 0.00 | 80 | 1015.3 |
| 20260903154200 | 84 | 163 | 0.0 | 2.6 | 0.00 | 0.00 | 0.00 | 80 | 1015.1 |
| 20260903153655 | 84 | 48 | 0.9 | 2.6 | 0.00 | 0.00 | 0.00 | 81 | 1015.3 |
| 20260903153151 | 84 | 64 | 1.7 | 2.6 | 0.00 | 0.00 | 0.00 | 80 | 1015.3 |
| 20260903152647 | 85 | 130 | 0.0 | 2.6 | 0.00 | 0.00 | 0.00 | 79 | 1015.2 |
| 20260903152143 | 85 | 90 | 0.0 | 3.5 | 0.00 | 0.00 | 0.00 | 78 | 1015.0 |
| 20260903151643 | 85 | 12 | 1.7 | 3.5 | 0.00 | 0.00 | 0.00 | 79 | 1014.9 |
| 20260903151142 | 86 | 161 | 1.7 | 3.5 | 0.00 | 0.00 | 0.00 | 76 | 1014.8 |
| 20260903150637 | 86 | 122 | 0.0 | 2.6 | 0.00 | 0.00 | 0.00 | 77 | 1014.8 |
| 20260903150132 | 86 | 343 | 0.9 | 1.7 | 0.00 | 0.00 | 0.00 | 78 | 1014.7 |
| 20260903145632 | 85 | 133 | 0.9 | 2.6 | 0.00 | 0.00 | 0.00 | 79 | 1014.9 |
| 20260903145127 | 85 | 72 | 0.0 | 1.7 | 0.00 | 0.00 | 0.00 | 79 | 1014.9 |
| 20260903144626 | 85 | 108 | 0.0 | 1.7 | 0.00 | 0.00 | 0.00 | 79 | 1015.0 |
| 20260903144122 | 85 | 355 | 1.7 | 3.5 | 0.00 | 0.00 | 0.00 | 78 | 1014.8 |
| 20260903143618 | 85 | 297 | 0.9 | 1.7 | 0.00 | 0.00 | 0.00 | 81 | 1014.9 |
| 20260903143114 | 84 | 188 | 0.0 | 2.6 | 0.00 | 0.00 | 0.00 | 81 | 1014.6 |
| 20260903142609 | 84 | 99 | 1.7 | 2.6 | 0.00 | 0.00 | 0.00 | 83 | 1014.5 |
| 20260903142106 | 84 | 331 | 0.0 | 2.6 | 0.00 | 0.00 | 0.00 | 82 | 1014.6 |
| 20260903141601 | 84 | 223 | 0.0 | 1.7 | 0.00 | 0.00 | 0.00 | 82 | 1014.5 |
| 20260903141056 | 84 | 341 | 0.0 | 2.6 | 0.00 | 0.00 | 0.00 | 82 | 1014.5 |
| 20260903140552 | 84 | 126 | 0.0 | 1.7 | 0.00 | 0.00 | 0.00 | 83 | 1014.8 |
| 20260903140047 | 84 | 201 | 0.9 | 1.7 | 0.00 | 0.00 | 0.00 | 85 | 1014.6 |
| 20260903135542 | 84 | 101 | 0.0 | 1.7 | 0.00 | 0.00 | 0.00 | 84 | 1014.7 |
| 20260903135037 | 83 | 161 | 0.9 | 0.9 | 0.00 | 0.00 | 0.00 | 87 | 1015.0 |
| 20260903134536 | 83 | 197 | 0.0 | 1.7 | 0.00 | 0.00 | 0.00 | 87 | 1014.9 |
| 20260903134033 | 83 | 70 | 0.0 | 1.7 | 0.00 | 0.00 | 0.00 | 87 | 1014.8 |
| 20260903133530 | 83 | 28 | 0.9 | 2.6 | 0.00 | 0.00 | 0.00 | 88 | 1014.7 |
| 20260903133025 | 82 | 73 | 0.9 | 2.6 | 0.00 | 0.00 | 0.00 | 88 | 1014.6 |
| 20260903132520 | 83 | 96 | 0.9 | 3.5 | 0.00 | 0.00 | 0.00 | 89 | 1014.8 |
| 20260903132015 | 82 | 61 | 0.0 | 1.7 | 0.00 | 0.00 | 0.00 | 89 | 1014.7 |
| 20260903131510 | 82 | 131 | 0.0 | 1.7 | 0.00 | 0.00 | 0.00 | 90 | 1014.7 |
| 20260903131009 | 82 | 192 | 0.0 | 0.9 | 0.00 | 0.00 | 0.00 | 91 | 1014.4 |
| 20260903130504 | 82 | 353 | 0.0 | 2.6 | 0.00 | 0.00 | 0.00 | 92 | 1014.5 |
| 20260903130003 | 81 | 79 | 0.9 | 0.9 | 0.00 | 0.00 | 0.00 | 93 | 1014.8 |
| 20260903125502 | 81 | 227 | 0.0 | 0.9 | 0.00 | 0.00 | 0.00 | 94 | 1014.8 |
| 20260903124957 | 81 | 105 | 0.0 | 0.9 | 0.00 | 0.00 | 0.00 | 94 | 1014.8 |
| 20260903124452 | 81 | 236 | 0.0 | 0.9 | 0.00 | 0.00 | 0.00 | 94 | 1014.7 |
| 20260903123951 | 80 | 34 | 0.0 | 1.7 | 0.00 | 0.00 | 0.00 | 95 | 1014.8 |
| 20260903123446 | 80 | 137 | 0.0 | 0.9 | 0.00 | 0.00 | 0.00 | 95 | 1014.8 |
| 20260903122944 | 80 | 317 | 0.0 | 1.7 | 0.00 | 0.00 | 0.00 | 96 | 1014.9 |
| 20260903122444 | 80 | 198 | 0.0 | 0.0 | 0.00 | 0.00 | 0.00 | 97 | 1014.6 |
| 20260903121943 | 79 | 356 | 0.0 | 0.9 | 0.00 | 0.00 | 0.00 | 97 | 1014.8 |
| 20260903121438 | 79 | 134 | 0.0 | 0.9 | 0.00 | 0.00 | 0.00 | 97 | 1014.7 |
| 20260903120935 | 79 | 57 | 0.9 | 0.9 | 0.00 | 0.00 | 0.00 | 97 | 1014.6 |
| 20260903120433 | 79 | 22 | 0.9 | 1.7 | 0.00 | 0.00 | 0.00 | 97 | 1014.7 |
| 20260903115932 | 79 | 58 | 0.0 | 0.0 | 0.00 | 0.00 | 0.00 | 98 | 1014.6 |
| 20260903115432 | 79 | 20 | 0.0 | 0.0 | 0.00 | 0.00 | 0.00 | 98 | 1014.5 |
| 20260903114927 | 78 | 194 | 0.0 | 0.9 | 0.00 | 0.00 | 0.00 | 98 | 1014.5 |
| 20260903114422 | 78 | 352 | 0.0 | 0.9 | 0.00 | 0.00 | 0.00 | 98 | 1014.2 |
| 20260903113918 | 78 | 186 | 0.0 | 0.9 | 0.00 | 0.00 | 0.00 | 98 | 1014.4 |
| 20260903113413 | 78 | 130 | 0.0 | 0.9 | 0.00 | 0.00 | 0.00 | 98 | 1014.2 |
| 20260903112909 | 78 | 94 | 0.0 | 0.0 | 0.00 | 0.00 | 0.00 | 98 | 1014.0 |
| 20260903112405 | 78 | 57 | 0.0 | 0.0 | 0.00 | 0.00 | 0.00 | 98 | 1013.9 |
| 20260903111903 | 78 | 31 | 0.0 | 0.0 | 0.00 | 0.00 | 0.00 | 98 | 1013.9 |
| 20260903111403 | 78 | 205 | 0.0 | 0.9 | 0.00 | 0.00 | 0.00 | 98 | 1013.7 |
| 20260903110859 | 78 | 174 | 0.9 | 1.7 | 0.00 | 0.00 | 0.00 | 98 | 1013.5 |
| 20260903110355 | 78 | 226 | 0.0 | 0.0 | 0.00 | 0.00 | 0.00 | 98 | 1013.7 |
| 20260903105850 | 78 | 134 | 0.0 | 0.0 | 0.00 | 0.00 | 0.00 | 98 | 1013.6 |
| 20260903105345 | 77 | 198 | 0.0 | 0.0 | 0.00 | 0.00 | 0.00 | 98 | 1013.8 |
| 20260903104844 | 78 | 127 | 0.0 | 0.9 | 0.00 | 0.00 | 0.00 | 98 | 1013.6 |
| 20260903104339 | 77 | 13 | 0.0 | 0.0 | 0.00 | 0.00 | 0.00 | 98 | 1013.4 |
| 20260903103836 | 78 | 18 | 0.0 | 0.9 | 0.00 | 0.00 | 0.00 | 98 | 1013.4 |
| 20260903103332 | 78 | 354 | 0.9 | 0.9 | 0.00 | 0.00 | 0.00 | 98 | 1013.3 |
| 20260903102827 | 78 | 174 | 0.0 | 0.9 | 0.00 | 0.00 | 0.00 | 98 | 1013.2 |
| 20260903102321 | 78 | 55 | 0.0 | 0.9 | 0.00 | 0.00 | 0.00 | 98 | 1013.3 |
| 20260903101821 | 78 | 70 | 0.0 | 1.7 | 0.00 | 0.00 | 0.00 | 98 | 1013.4 |
| 20260903101316 | 78 | 65 | 0.0 | 0.0 | 0.00 | 0.00 | 0.00 | 99 | 1013.1 |
| 20260903100811 | 78 | 341 | 0.0 | 0.9 | 0.00 | 0.00 | 0.00 | 99 | 1013.3 |
| 20260903100306 | 78 | 19 | 0.0 | 0.0 | 0.00 | 0.00 | 0.00 | 99 | 1013.1 |
| 20260903095803 | 78 | 119 | 1.7 | 1.7 | 0.00 | 0.00 | 0.00 | 99 | 1013.0 |
| 20260903095257 | 78 | 94 | 0.0 | 0.0 | 0.00 | 0.00 | 0.00 | 99 | 1013.2 |
| 20260903094753 | 79 | 6 | 0.0 | 1.7 | 0.00 | 0.00 | 0.00 | 99 | 1013.3 |
| 20260903094247 | 79 | 46 | 0.0 | 1.7 | 0.00 | 0.00 | 0.00 | 99 | 1013.1 |
| 20260903093743 | 78 | 22 | 0.9 | 0.9 | 0.00 | 0.00 | 0.00 | 99 | 1013.0 |
| 20260903093239 | 78 | 334 | 0.0 | 0.9 | 0.00 | 0.00 | 0.00 | 99 | 1013.1 |
| 20260903092738 | 78 | 175 | 0.9 | 0.9 | 0.00 | 0.00 | 0.00 | 99 | 1013.1 |
| 20260903092233 | 78 | 176 | 0.0 | 0.0 | 0.00 | 0.00 | 0.00 | 99 | 1013.2 |
| 20260903091732 | 78 | 190 | 0.0 | 0.0 | 0.00 | 0.00 | 0.00 | 99 | 1013.2 |
| 20260903091226 | 78 | 18 | 0.0 | 0.0 | 0.00 | 0.00 | 0.00 | 99 | 1013.0 |
| 20260903090722 | 78 | 143 | 0.0 | 0.9 | 0.00 | 0.00 | 0.00 | 99 | 1013.0 |
| 20260903090220 | 78 | 43 | 0.0 | 0.0 | 0.00 | 0.00 | 0.00 | 98 | 1013.0 |
| 20260903085720 | 78 | 123 | 0.0 | 0.0 | 0.00 | 0.00 | 0.00 | 98 | 1012.9 |
| 20260903085215 | 78 | 123 | 0.0 | 0.0 | 0.00 | 0.00 | 0.00 | 98 | 1013.0 |
| 20260903084712 | 78 | 25 | 0.0 | 0.0 | 0.00 | 0.00 | 0.00 | 99 | 1013.0 |
| 20260903084208 | 78 | 25 | 0.0 | 0.0 | 0.00 | 0.00 | 0.00 | 98 | 1013.0 |
| 20260903083704 | 78 | 25 | 0.0 | 0.9 | 0.00 | 0.00 | 0.00 | 99 | 1013.1 |
| 20260903083203 | 78 | 13 | 0.0 | 0.0 | 0.00 | 0.00 | 0.00 | 98 | 1013.0 |
| 20260903082657 | 78 | 13 | 0.0 | 0.0 | 0.00 | 0.00 | 0.00 | 98 | 1013.0 |
| 20260903082154 | 78 | 13 | 0.0 | 0.0 | 0.00 | 0.00 | 0.00 | 98 | 1013.2 |
| 20260903081653 | 78 | 13 | 0.0 | 0.0 | 0.00 | 0.00 | 0.00 | 98 | 1013.0 |
| 20260903081149 | 78 | 98 | 0.0 | 0.0 | 0.00 | 0.00 | 0.00 | 98 | 1013.1 |
| 20260903080645 | 78 | 98 | 0.0 | 0.0 | 0.00 | 0.00 | 0.00 | 98 | 1013.0 |
| 20260903080143 | 78 | 98 | 0.0 | 0.0 | 0.00 | 0.00 | 0.00 | 98 | 1013.6 |
| 20260903075642 | 78 | 98 | 0.0 | 0.0 | 0.00 | 0.00 | 0.00 | 98 | 1013.4 |
| 20260903075137 | 78 | 98 | 0.0 | 0.0 | 0.00 | 0.00 | 0.00 | 98 | 1013.4 |
| 20260903074636 | 79 | 98 | 0.0 | 0.0 | 0.00 | 0.00 | 0.00 | 98 | 1013.3 |
| 20260903074132 | 78 | 98 | 0.0 | 0.0 | 0.00 | 0.00 | 0.00 | 98 | 1013.3 |
| 20260903073626 | 78 | 98 | 0.0 | 0.0 | 0.00 | 0.00 | 0.00 | 98 | 1013.2 |
| 20260903073122 | 79 | 98 | 0.0 | 0.0 | 0.00 | 0.00 | 0.00 | 98 | 1013.2 |
| 20260903072618 | 78 | 98 | 0.0 | 0.0 | 0.00 | 0.00 | 0.00 | 98 | 1013.4 |
| 20260903072114 | 79 | 98 | 0.0 | 0.0 | 0.00 | 0.00 | 0.00 | 98 | 1013.5 |
| 20260903071611 | 79 | 98 | 0.0 | 0.0 | 0.00 | 0.00 | 0.00 | 98 | 1013.6 |
| 20260903071110 | 78 | 98 | 0.0 | 0.0 | 0.00 | 0.00 | 0.00 | 98 | 1013.6 |
| 20260903070605 | 78 | 98 | 0.0 | 0.0 | 0.00 | 0.00 | 0.00 | 98 | 1013.6 |
| 20260903065600 | 79 | 98 | 0.0 | 0.0 | 0.00 | 0.00 | 0.00 | 98 | 1013.5 |
| 20260903065054 | 79 | 98 | 0.0 | 0.0 | 0.00 | 0.00 | 0.00 | 98 | 1013.7 |
| 20260903064555 | 79 | 98 | 0.0 | 0.0 | 0.00 | 0.00 | 0.00 | 98 | 1013.4 |
| 20260903064050 | 79 | 303 | 0.0 | 0.0 | 0.00 | 0.00 | 0.00 | 98 | 1013.5 |
| 20260903063545 | 79 | 303 | 0.0 | 0.0 | 0.00 | 0.00 | 0.00 | 98 | 1013.5 |
| 20260903063041 | 79 | 303 | 0.0 | 0.0 | 0.00 | 0.00 | 0.00 | 98 | 1013.6 |
| 20260903062536 | 79 | 303 | 0.0 | 0.0 | 0.00 | 0.00 | 0.00 | 98 | 1013.8 |
| 20260903062031 | 79 | 303 | 0.0 | 0.0 | 0.00 | 0.00 | 0.00 | 98 | 1013.8 |
| 20260903061527 | 79 | 303 | 0.0 | 0.0 | 0.00 | 0.00 | 0.00 | 98 | 1013.7 |
| 20260903061027 | 79 | 123 | 0.0 | 0.0 | 0.00 | 0.00 | 0.00 | 98 | 1014.1 |
| 20260903060526 | 79 | 123 | 0.0 | 0.0 | 0.00 | 0.00 | 0.00 | 98 | 1014.1 |
| 20260903060021 | 79 | 211 | 0.0 | 0.0 | 0.00 | 0.00 | 0.00 | 98 | 1014.0 |
| 20260903055519 | 79 | 211 | 0.0 | 0.0 | 0.00 | 0.00 | 0.00 | 98 | 1014.0 |
| 20260903055018 | 79 | 211 | 0.0 | 0.0 | 0.00 | 0.00 | 0.00 | 98 | 1014.1 |
| 20260903054513 | 79 | 211 | 0.0 | 0.0 | 0.00 | 0.00 | 0.00 | 98 | 1014.3 |
| 20260903054008 | 79 | 211 | 0.0 | 0.0 | 0.00 | 0.00 | 0.00 | 98 | 1014.5 |
| 20260903053503 | 80 | 242 | 0.0 | 0.0 | 0.00 | 0.00 | 0.00 | 98 | 1014.5 |
| 20260903052959 | 80 | 107 | 0.0 | 0.9 | 0.00 | 0.00 | 0.00 | 98 | 1014.4 |
| 20260903052455 | 80 | 85 | 0.0 | 0.0 | 0.00 | 0.00 | 0.00 | 98 | 1014.3 |
| 20260903051950 | 80 | 85 | 0.0 | 0.0 | 0.00 | 0.00 | 0.00 | 98 | 1014.4 |
| 20260903051445 | 80 | 198 | 0.0 | 0.0 | 0.00 | 0.00 | 0.00 | 98 | 1014.5 |
| 20260903050941 | 80 | 133 | 0.9 | 0.9 | 0.00 | 0.00 | 0.00 | 98 | 1014.5 |
| 20260903050439 | 79 | 85 | 0.0 | 0.0 | 0.00 | 0.00 | 0.00 | 98 | 1014.5 |
| 20260903045934 | 79 | 85 | 0.0 | 0.0 | 0.00 | 0.00 | 0.00 | 98 | 1014.7 |
| 20260903045430 | 79 | 98 | 0.0 | 0.0 | 0.00 | 0.00 | 0.00 | 98 | 1014.6 |
| 20260903044926 | 79 | 308 | 0.0 | 0.0 | 0.00 | 0.00 | 0.00 | 98 | 1014.6 |
| 20260903044427 | 79 | 308 | 0.0 | 0.0 | 0.00 | 0.00 | 0.00 | 98 | 1014.5 |